[[{"header":{"parameterUnit":"m.s-1","parameterCategory":1,"la1":30.2991,"la2":30.254,"lo1":-89.0895,"lo2":-89.0444,"dy":0.0017,"dx":0.0017,"nx":28,"ny":28,"refTime":"2024-04-03T03:00:00:Z","depth":0,"parameterNumber":2,"parameterNumberName":"U-component_of_WINDS"},"data":[0,0,0,0,0,0,0,0,0,0,0,0,0,0,0,0,0,0,0,0,0,0,0,0,0,0,0,0,0,0,0,0,0,0,0,0,0,0,0,0,0,0,0,0,0,0,0,0,0,0,0,0,0,0,0,0,0,0,5.4912,5.4912,0,5.4962,5.4963,5.4964,5.4956,5.4956,5.4955,5.4954,5.5004,5.5006,5.5008,0,0,0,0,0,0,0,0,0,0,0,0,0,5.4808,5.481,5.4912,5.4913,5.4913,5.4962,5.4963,5.4964,5.4957,5.4956,5.4955,5.4954,5.5003,5.5006,5.5008,0,0,0,0,0,0,0,0,0,0,0,0,0,5.4855,5.4811,5.4912,5.4916,5.4916,5.4962,5.4963,5.4964,5.4957,5.4956,5.4954,5.4953,5.5002,5.5006,5.5009,5.5053,0,0,5.5018,5.502,0,0,0,0,0,0,0,0,5.4853,5.4859,5.4914,5.4915,5.4916,5.4952,5.4945,5.4994,5.4957,5.4941,5.4954,5.4952,5.4988,5.4992,5.5004,5.5056,5.5058,5.5019,5.5021,5.5022,5.5023,0,0,0,0,0,0,0,5.485,5.4857,5.4932,5.4915,5.4916,5.4914,5.492,5.4954,5.4971,5.4943,5.4942,5.4948,5.4988,5.5001,5.5005,5.5059,5.5019,5.5021,5.5023,5.5025,5.5151,5.5152,0,0,0,0,0,0,5.4845,5.4854,5.493,5.4933,5.4881,5.4917,5.4923,5.4942,5.497,5.4974,5.4949,5.4948,5.4996,5.5001,5.5007,5.5062,5.5022,5.5025,5.5027,5.515,5.5151,5.5153,0,0,0,0,0,0,5.4843,5.4852,5.4928,5.4894,5.4903,5.4921,5.4941,5.4943,5.4957,5.4976,5.4978,5.496,5.4995,5.5002,5.5042,5.5064,5.5026,5.5029,5.5148,5.515,5.5152,5.5172,0,0,0,0,0,0,5.484,5.4852,5.4869,5.4894,5.4905,5.4963,5.4943,5.4945,5.4962,5.4961,5.4986,5.4989,5.4995,5.5038,5.5045,5.5067,5.5032,5.5146,5.5149,5.5151,5.5169,5.5174,5.5179,0,0,0,0,0,5.4837,5.4872,5.487,5.4879,5.4927,5.4964,5.497,5.4977,5.4964,5.4981,5.4994,5.4988,5.506,5.5042,5.5051,5.5074,5.5145,5.5148,5.5151,5.5167,5.5173,5.5179,0,0,0,0,0,0,5.4847,5.4875,5.4873,5.4917,5.4939,5.4963,5.4985,5.4983,5.5008,5.5005,5.5012,5.5018,5.5058,5.507,5.5049,5.5119,5.5101,5.5106,5.511,5.5116,5.512,5.5117,5.5034,0,0,0,0,0,5.4855,5.4883,5.4906,5.4942,5.4953,5.4968,5.4984,5.4987,5.5009,5.5018,5.5033,5.5054,5.5082,5.5099,5.5126,5.5171,5.5177,5.5192,5.5196,5.52,5.5204,5.523,5.5237,5.5164,5.5164,5.5164,0,0,5.487,5.4889,5.4906,5.4945,5.4962,5.4991,5.4975,5.5006,5.5027,5.5022,5.5061,5.5073,5.5097,5.5141,5.5161,5.5152,5.5226,5.5204,5.5207,5.5209,5.5234,5.5241,5.5248,5.5166,5.5165,5.5165,0,0,5.4914,5.4931,5.4964,5.4981,5.5008,5.5017,5.5025,5.505,5.5058,5.5098,5.5095,5.5121,5.5167,5.5185,5.52,5.5252,5.5248,5.5261,5.5285,5.531,5.5316,5.5321,5.534,5.5347,5.5265,5.5265,5.5265,0,5.4929,5.4973,5.4981,5.5013,5.503,5.5028,5.5062,5.5078,5.5111,5.5124,5.5113,5.5173,5.5189,5.5237,5.525,5.5262,5.5272,5.5257,5.5315,5.532,5.5325,5.5343,5.535,5.5266,5.5266,5.5266,5.5266,0,5.4992,5.5023,5.5046,5.508,5.51,5.5132,5.5145,5.5164,5.5166,5.5177,5.5217,5.5237,5.5267,5.5279,5.5281,5.5328,5.5322,5.5313,5.5295,5.5333,5.535,5.5357,5.5268,5.5268,5.5267,5.5267,0,0,5.5042,5.508,5.5089,5.5105,5.5134,5.5158,5.5191,5.5221,5.5238,5.5261,5.5289,5.533,5.5323,5.534,5.5344,5.5366,5.5407,5.5355,5.5356,5.5364,5.546,5.5466,5.5474,5.5405,5.5406,5.5407,5.5458,0,5.5089,5.5147,5.5156,5.5207,5.5236,5.5236,5.5264,5.5285,5.5297,5.5322,5.5334,5.5363,5.5351,5.5362,5.5384,5.5397,5.5426,5.5394,5.5431,5.5432,5.5424,5.5483,5.549,5.5537,5.5465,5.5466,5.5467,0,5.515,5.5177,5.5232,5.5258,5.5271,5.5296,5.5326,5.5351,5.5375,5.5382,5.5402,5.5403,5.5438,5.5418,5.5466,5.5443,5.5459,5.5468,5.547,5.5474,5.5451,5.5488,5.5552,5.5559,5.5478,5.5477,5.5476,0,5.5182,5.5231,5.5271,5.5284,5.5316,5.5334,5.5348,5.5371,5.539,5.5416,5.5428,5.5457,5.5473,5.5496,5.5505,5.549,5.5552,5.5534,5.5559,5.5559,5.5571,5.557,5.5638,5.5582,5.5582,5.5582,5.5581,0,5.5233,5.5267,5.5286,5.531,5.5348,5.5357,5.5394,5.5408,5.5429,5.5456,5.5457,5.5482,5.5493,5.552,5.5528,5.5566,5.5573,5.558,5.5581,5.5579,5.5579,5.5589,5.5586,5.5583,5.5583,5.5583,5.5582,0,5.5275,5.5289,5.5332,5.5359,5.5367,5.5394,5.5417,5.5441,5.5452,5.5486,5.5495,5.5512,5.5544,5.5556,5.5595,5.56,5.5645,5.5644,5.5637,5.5637,5.5662,5.5659,5.5739,5.575,5.5686,5.5687,5.5687,0,5.5306,5.5333,5.5363,5.5382,5.5397,5.5426,5.5446,5.5456,5.5476,5.5507,5.5527,5.5559,5.5585,5.5636,5.5652,5.5682,5.5682,5.5708,5.5686,5.5684,5.5682,5.568,5.5683,5.5711,5.5712,5.5713,5.5713,0,5.5361,5.5367,5.5395,5.5426,5.5449,5.5474,5.5498,5.5513,5.5527,5.5549,5.5582,5.5603,5.5643,5.5675,5.5706,5.572,5.5719,5.572,5.5727,5.5726,5.5721,5.5724,5.5648,5.5718,5.5717,5.5717,5.5717,5.5716,5.5399,5.5423,5.5448,5.548,5.5499,5.5522,5.5546,5.5561,5.5589,5.5623,5.5627,5.5663,5.5687,5.5729,5.5745,5.5773,5.5766,5.5776,5.5779,5.5782,5.5783,5.5717,5.5778,5.5778,5.5778,5.5778,5.5778,0,5.5455,5.5471,5.55,5.5534,5.5559,5.5557,5.5583,5.5604,5.5636,5.5659,5.5685,5.5724,5.5755,5.5774,5.5806,5.5824,5.5825,5.5832,5.5831,5.5834,5.5788,5.5778,5.5832,5.5832,5.5831,5.5831,5.5831,5.5831,5.5486,5.5526,5.5535,5.5585,5.5602,5.5637,5.5653,5.5674,5.5692,5.5735,5.5762,5.5774,5.5796,5.5829,5.5858,5.5863,5.5874,5.5883,5.5887,5.5843,5.5837,5.5832,5.5823,5.5885,5.5885,5.5931,5.5932,5.5932]},{"header":{"parameterUnit":"m.s-1","parameterCategory":1,"la1":30.2991,"la2":30.254,"lo1":-89.0895,"lo2":-89.0444,"dy":0.0017,"dx":0.0017,"nx":28,"ny":28,"refTime":"2024-04-03T03:00:00:Z","depth":0,"parameterNumber":3,"parameterNumberName":"V-component_of_WINDS"},"data":[0,0,0,0,0,0,0,0,0,0,0,0,0,0,0,0,0,0,0,0,0,0,0,0,0,0,0,0,0,0,0,0,0,0,0,0,0,0,0,0,0,0,0,0,0,0,0,0,0,0,0,0,0,0,0,0,0,0,-1.7683,-1.7683,0,-1.7674,-1.7674,-1.7674,-1.7704,-1.7705,-1.7705,-1.7706,-1.7692,-1.7691,-1.7689,0,0,0,0,0,0,0,0,0,0,0,0,0,-1.7722,-1.7721,-1.7683,-1.7683,-1.7683,-1.7674,-1.7674,-1.7674,-1.7703,-1.7705,-1.7706,-1.7707,-1.7692,-1.7691,-1.7689,0,0,0,0,0,0,0,0,0,0,0,0,0,-1.7708,-1.7721,-1.7683,-1.7697,-1.7698,-1.7674,-1.7674,-1.7674,-1.7703,-1.7705,-1.7706,-1.7707,-1.7693,-1.7691,-1.7689,-1.765,0,0,-1.7683,-1.7683,0,0,0,0,0,0,0,0,-1.7709,-1.7707,-1.7695,-1.7696,-1.7697,-1.7691,-1.7682,-1.7665,-1.7703,-1.7701,-1.7706,-1.7708,-1.769,-1.7689,-1.7684,-1.7649,-1.7649,-1.7683,-1.7682,-1.7681,-1.7681,0,0,0,0,0,0,0,-1.771,-1.7707,-1.7679,-1.7695,-1.7696,-1.7702,-1.7702,-1.7679,-1.7688,-1.7701,-1.7703,-1.7702,-1.7691,-1.7685,-1.7684,-1.7648,-1.7683,-1.7682,-1.768,-1.768,-1.7582,-1.758,0,0,0,0,0,0,-1.771,-1.7708,-1.7679,-1.7679,-1.7707,-1.77,-1.77,-1.7692,-1.7688,-1.7689,-1.7701,-1.7704,-1.7688,-1.7686,-1.7683,-1.7637,-1.7681,-1.768,-1.7678,-1.7583,-1.7581,-1.758,0,0,0,0,0,0,-1.771,-1.7707,-1.768,-1.7694,-1.7691,-1.7698,-1.7689,-1.7691,-1.7685,-1.7688,-1.7689,-1.7694,-1.7689,-1.7686,-1.7658,-1.7637,-1.7679,-1.7677,-1.7585,-1.7583,-1.758,-1.7544,0,0,0,0,0,0,-1.7711,-1.7707,-1.7693,-1.7694,-1.769,-1.7656,-1.7688,-1.769,-1.7683,-1.7686,-1.7682,-1.7682,-1.769,-1.7661,-1.7657,-1.7635,-1.7676,-1.7587,-1.7584,-1.7581,-1.7548,-1.7541,-1.7536,0,0,0,0,0,-1.7713,-1.7682,-1.7692,-1.7688,-1.7673,-1.7655,-1.7653,-1.7663,-1.7681,-1.7666,-1.7668,-1.7682,-1.7641,-1.7658,-1.7653,-1.7631,-1.7588,-1.7585,-1.7581,-1.755,-1.7543,-1.7536,0,0,0,0,0,0,-1.7676,-1.7682,-1.7693,-1.7662,-1.7658,-1.766,-1.7642,-1.7655,-1.7644,-1.7648,-1.766,-1.7659,-1.7629,-1.7627,-1.7647,-1.7593,-1.7617,-1.7613,-1.7595,-1.7588,-1.7582,-1.7582,-1.7674,0,0,0,0,0,-1.7665,-1.7651,-1.7657,-1.7628,-1.7626,-1.7634,-1.7627,-1.7636,-1.7631,-1.7629,-1.7629,-1.7623,-1.7608,-1.7598,-1.7585,-1.7548,-1.7547,-1.7531,-1.7525,-1.752,-1.7515,-1.7496,-1.7488,-1.7569,-1.7569,-1.7569,0,0,-1.7641,-1.7642,-1.7632,-1.7621,-1.7619,-1.7603,-1.7632,-1.7614,-1.7602,-1.7626,-1.76,-1.76,-1.7594,-1.7562,-1.7548,-1.7559,-1.7493,-1.7516,-1.7512,-1.751,-1.7492,-1.7484,-1.7477,-1.7566,-1.7567,-1.7567,0,0,-1.7588,-1.7589,-1.7565,-1.7563,-1.7561,-1.7567,-1.7561,-1.7561,-1.7563,-1.7538,-1.7555,-1.7541,-1.7515,-1.7511,-1.7505,-1.7453,-1.7465,-1.7448,-1.7417,-1.7398,-1.7391,-1.7386,-1.7366,-1.7359,-1.7444,-1.7443,-1.7443,0,-1.7558,-1.7536,-1.7551,-1.7533,-1.7527,-1.755,-1.7526,-1.7522,-1.7514,-1.7509,-1.7524,-1.7493,-1.7491,-1.7458,-1.7445,-1.744,-1.7433,-1.7447,-1.7391,-1.7386,-1.7381,-1.7362,-1.7355,-1.7441,-1.7442,-1.7442,-1.7442,0,-1.7499,-1.7484,-1.7465,-1.7459,-1.7452,-1.743,-1.7441,-1.7431,-1.7441,-1.7445,-1.742,-1.7418,-1.7405,-1.7398,-1.7407,-1.7366,-1.7374,-1.739,-1.7414,-1.7371,-1.7354,-1.7347,-1.7438,-1.7439,-1.744,-1.744,0,0,-1.7421,-1.7426,-1.7418,-1.7416,-1.7416,-1.7404,-1.7383,-1.7373,-1.7364,-1.7358,-1.7341,-1.732,-1.7335,-1.7328,-1.7337,-1.732,-1.7278,-1.7338,-1.7338,-1.7326,-1.7233,-1.7221,-1.7212,-1.7288,-1.7286,-1.7285,-1.7234,0,-1.7369,-1.7336,-1.735,-1.7315,-1.7301,-1.7323,-1.7305,-1.7302,-1.7306,-1.7294,-1.7297,-1.7282,-1.7303,-1.73,-1.7284,-1.7287,-1.726,-1.7291,-1.727,-1.7269,-1.7269,-1.7204,-1.719,-1.7141,-1.7227,-1.7226,-1.7225,0,-1.7304,-1.7298,-1.7262,-1.7265,-1.7259,-1.7243,-1.7235,-1.7224,-1.7221,-1.7225,-1.7218,-1.7231,-1.721,-1.7236,-1.7206,-1.7227,-1.722,-1.722,-1.7218,-1.7215,-1.7243,-1.7198,-1.7126,-1.7118,-1.7215,-1.7216,-1.7216,0,-1.725,-1.7233,-1.7209,-1.7207,-1.721,-1.7198,-1.7198,-1.7197,-1.719,-1.7183,-1.7178,-1.7168,-1.7161,-1.7152,-1.7161,-1.7179,-1.7131,-1.7157,-1.7132,-1.7132,-1.7119,-1.712,-1.7044,-1.7117,-1.7117,-1.7117,-1.7117,0,-1.719,-1.7167,-1.7185,-1.717,-1.7145,-1.7161,-1.7135,-1.7138,-1.7137,-1.7122,-1.7141,-1.7127,-1.714,-1.7127,-1.7134,-1.7108,-1.7106,-1.7107,-1.7109,-1.7105,-1.7104,-1.7099,-1.7102,-1.7115,-1.7115,-1.7116,-1.7116,0,-1.7125,-1.7136,-1.7112,-1.7118,-1.7119,-1.71,-1.7104,-1.709,-1.7096,-1.7078,-1.7074,-1.7083,-1.7068,-1.7077,-1.7062,-1.7066,-1.7033,-1.704,-1.7034,-1.7036,-1.701,-1.7012,-1.6927,-1.6916,-1.6997,-1.6996,-1.6995,0,-1.7085,-1.7068,-1.7073,-1.7065,-1.7065,-1.7053,-1.7046,-1.7061,-1.7054,-1.705,-1.7036,-1.7024,-1.7015,-1.699,-1.6994,-1.6982,-1.6988,-1.696,-1.6986,-1.6983,-1.6987,-1.6987,-1.6985,-1.6953,-1.6952,-1.6952,-1.6951,0,-1.7013,-1.702,-1.7011,-1.7004,-1.6997,-1.6992,-1.6988,-1.698,-1.6996,-1.6986,-1.6972,-1.6965,-1.6951,-1.6937,-1.6928,-1.6927,-1.6941,-1.6943,-1.6936,-1.6931,-1.6928,-1.6929,-1.7018,-1.6944,-1.6945,-1.6945,-1.6946,-1.6946,-1.6959,-1.6945,-1.6947,-1.6936,-1.6935,-1.6932,-1.6919,-1.6925,-1.6914,-1.6905,-1.6914,-1.6898,-1.6896,-1.6885,-1.6882,-1.6869,-1.688,-1.6871,-1.6868,-1.6865,-1.6861,-1.6932,-1.6867,-1.6867,-1.6867,-1.6868,-1.6868,0,-1.6887,-1.689,-1.688,-1.6875,-1.6867,-1.6884,-1.6881,-1.6872,-1.6858,-1.6856,-1.6847,-1.6831,-1.6819,-1.6823,-1.6812,-1.68,-1.6807,-1.6797,-1.6797,-1.6797,-1.6852,-1.6859,-1.6792,-1.6792,-1.6792,-1.6792,-1.6792,-1.6792,-1.6849,-1.6826,-1.6834,-1.6811,-1.6814,-1.6799,-1.6796,-1.6793,-1.6791,-1.6774,-1.6764,-1.6768,-1.6768,-1.6757,-1.6747,-1.6748,-1.6743,-1.673,-1.6734,-1.6785,-1.6793,-1.68,-1.6806,-1.6729,-1.6729,-1.6679,-1.6679,-1.6679]}]]